Retour au catalogue

COSMOS 1249 COOLANT

ActifLEO
NORAD 26512·DEBRIS·🇷🇺 Russia

Lancé Mar 5, 1981 depuis Baikonur Cosmodrome

Loading…

Prochains Passages (prochaines 24 heures)

TLE

PériméSource: Space-Track

Époque: Sep 2, 2026, 08:10 UTC

1 26512U 81021P   26245.34079465  .00000088  00000-0  13602-3 0  9996
2 26512  64.9642  87.3983 0056863 223.3573 315.5641 13.92839134664329

Suivez COSMOS 1249 COOLANT en temps réel avec AllMySat

Download on the App Store